owner,sensor,date,latitude,longitude,air_pressure(mBar),qcFlag 
COMPS,ioos:station:USF.COMPS:C13:1,2016-12-01T00:05:00Z,26.0630,-83.0730,1012.35,1111122 
COMPS,ioos:station:USF.COMPS:C13:1,2016-12-01T00:35:00Z,26.0630,-83.0730,1012.66,1111122 
COMPS,ioos:station:USF.COMPS:C13:1,2016-12-01T01:05:00Z,26.0630,-83.0730,1012.91,1111122 
COMPS,ioos:station:USF.COMPS:C13:1,2016-12-01T01:35:00Z,26.0630,-83.0730,1012.98,1111122 
COMPS,ioos:station:USF.COMPS:C13:1,2016-12-01T02:05:00Z,26.0630,-83.0730,1012.95,1111122 
COMPS,ioos:station:USF.COMPS:C13:1,2016-12-01T02:35:00Z,26.0630,-83.0730,1012.99,1111122 
COMPS,ioos:station:USF.COMPS:C13:1,2016-12-01T03:05:00Z,26.0630,-83.0730,1013.23,1111122 
COMPS,ioos:station:USF.COMPS:C13:1,2016-12-01T03:35:00Z,26.0630,-83.0730,1013.06,1111122 
COMPS,ioos:station:USF.COMPS:C13:1,2016-12-01T04:05:00Z,26.0630,-83.0730,1012.98,1111122 
COMPS,ioos:station:USF.COMPS:C13:1,2016-12-01T04:35:00Z,26.0630,-83.0730,1012.87,1111122 
COMPS,ioos:station:USF.COMPS:C13:1,2016-12-01T05:05:00Z,26.0630,-83.0730,1012.63,1111122 
COMPS,ioos:station:USF.COMPS:C13:1,2016-12-01T05:35:00Z,26.0630,-83.0730,1012.45,1111122 
COMPS,ioos:station:USF.COMPS:C13:1,2016-12-01T06:05:00Z,26.0630,-83.0730,1012.3,1111122 
COMPS,ioos:station:USF.COMPS:C13:1,2016-12-01T06:35:00Z,26.0630,-83.0730,1012.16,1111122 
COMPS,ioos:station:USF.COMPS:C13:1,2016-12-01T07:05:00Z,26.0630,-83.0730,1011.99,1111122 
COMPS,ioos:station:USF.COMPS:C13:1,2016-12-01T07:35:00Z,26.0630,-83.0730,1011.75,1111122 
COMPS,ioos:station:USF.COMPS:C13:1,2016-12-01T08:05:00Z,26.0630,-83.0730,1011.67,1111122 
COMPS,ioos:station:USF.COMPS:C13:1,2016-12-01T08:35:00Z,26.0630,-83.0730,1011.88,1111122 
COMPS,ioos:station:USF.COMPS:C13:1,2016-12-01T09:05:00Z,26.0630,-83.0730,1011.74,1111122 
COMPS,ioos:station:USF.COMPS:C13:1,2016-12-01T09:35:00Z,26.0630,-83.0730,1011.88,1111122 
COMPS,ioos:station:USF.COMPS:C13:1,2016-12-01T10:05:00Z,26.0630,-83.0730,1011.97,1111122 
COMPS,ioos:station:USF.COMPS:C13:1,2016-12-01T10:35:00Z,26.0630,-83.0730,1012.37,1111122 
COMPS,ioos:station:USF.COMPS:C13:1,2016-12-01T11:05:00Z,26.0630,-83.0730,1012.47,1111122 
COMPS,ioos:station:USF.COMPS:C13:1,2016-12-01T11:35:00Z,26.0630,-83.0730,1012.43,1111122 
COMPS,ioos:station:USF.COMPS:C13:1,2016-12-01T12:05:00Z,26.0630,-83.0730,1012.88,1111122 
COMPS,ioos:station:USF.COMPS:C13:1,2016-12-01T12:35:00Z,26.0630,-83.0730,1013.1,1111122 
COMPS,ioos:station:USF.COMPS:C13:1,2016-12-01T13:05:00Z,26.0630,-83.0730,1013.39,1111122 
COMPS,ioos:station:USF.COMPS:C13:1,2016-12-01T13:35:00Z,26.0630,-83.0730,1013.73,1111122 
COMPS,ioos:station:USF.COMPS:C13:1,2016-12-01T14:05:00Z,26.0630,-83.0730,1013.89,1111122 
COMPS,ioos:station:USF.COMPS:C13:1,2016-12-01T14:35:00Z,26.0630,-83.0730,1014.15,1111122 
COMPS,ioos:station:USF.COMPS:C13:1,2016-12-01T15:05:00Z,26.0630,-83.0730,1014.31,1111122 
COMPS,ioos:station:USF.COMPS:C13:1,2016-12-01T15:35:00Z,26.0630,-83.0730,1013.89,1111122 
COMPS,ioos:station:USF.COMPS:C13:1,2016-12-01T16:05:00Z,26.0630,-83.0730,1013.77,1111122 
COMPS,ioos:station:USF.COMPS:C13:1,2016-12-01T16:35:00Z,26.0630,-83.0730,1013.54,1111122 
COMPS,ioos:station:USF.COMPS:C13:1,2016-12-01T17:05:00Z,26.0630,-83.0730,1013.39,1111122 
COMPS,ioos:station:USF.COMPS:C13:1,2016-12-01T17:35:00Z,26.0630,-83.0730,1012.89,1111122 
COMPS,ioos:station:USF.COMPS:C13:1,2016-12-01T18:05:00Z,26.0630,-83.0730,1012.51,1111122 
COMPS,ioos:station:USF.COMPS:C13:1,2016-12-01T18:35:00Z,26.0630,-83.0730,1012.2,1111122 
COMPS,ioos:station:USF.COMPS:C13:1,2016-12-01T19:05:00Z,26.0630,-83.0730,1011.96,1111122 
COMPS,ioos:station:USF.COMPS:C13:1,2016-12-01T19:35:00Z,26.0630,-83.0730,1011.82,1111122 
COMPS,ioos:station:USF.COMPS:C13:1,2016-12-01T20:05:00Z,26.0630,-83.0730,1011.91,1111122 
COMPS,ioos:station:USF.COMPS:C13:1,2016-12-01T20:35:00Z,26.0630,-83.0730,1011.77,1111122 
COMPS,ioos:station:USF.COMPS:C13:1,2016-12-01T21:05:00Z,26.0630,-83.0730,1012.01,1111122 
COMPS,ioos:station:USF.COMPS:C13:1,2016-12-01T21:35:00Z,26.0630,-83.0730,1012.09,1111122 
COMPS,ioos:station:USF.COMPS:C13:1,2016-12-01T22:05:00Z,26.0630,-83.0730,1012.25,1111122 
COMPS,ioos:station:USF.COMPS:C13:1,2016-12-01T22:35:00Z,26.0630,-83.0730,1012.5,1111122 
COMPS,ioos:station:USF.COMPS:C13:1,2016-12-01T23:05:00Z,26.0630,-83.0730,1012.63,1111122 
COMPS,ioos:station:USF.COMPS:C13:1,2016-12-01T23:35:00Z,26.0630,-83.0730,1012.83,1111122 
COMPS,ioos:station:USF.COMPS:C13:1,2016-12-02T00:05:00Z,26.0630,-83.0730,1012.97,1111122 
COMPS,ioos:station:USF.COMPS:C13:1,2016-12-02T00:35:00Z,26.0630,-83.0730,1013.35,1111122 
COMPS,ioos:station:USF.COMPS:C13:1,2016-12-02T01:05:00Z,26.0630,-83.0730,1013.6,1111122 
COMPS,ioos:station:USF.COMPS:C13:1,2016-12-02T01:35:00Z,26.0630,-83.0730,1013.9,1111122 
COMPS,ioos:station:USF.COMPS:C13:1,2016-12-02T02:05:00Z,26.0630,-83.0730,1013.99,1111122 
COMPS,ioos:station:USF.COMPS:C13:1,2016-12-02T02:35:00Z,26.0630,-83.0730,1014.31,1111122 
COMPS,ioos:station:USF.COMPS:C13:1,2016-12-02T03:05:00Z,26.0630,-83.0730,1014.31,1111122 
COMPS,ioos:station:USF.COMPS:C13:1,2016-12-02T03:35:00Z,26.0630,-83.0730,1014.38,1111122 
COMPS,ioos:station:USF.COMPS:C13:1,2016-12-02T04:05:00Z,26.0630,-83.0730,1014.31,1111122 
COMPS,ioos:station:USF.COMPS:C13:1,2016-12-02T04:35:00Z,26.0630,-83.0730,1014.31,1111122 
COMPS,ioos:station:USF.COMPS:C13:1,2016-12-02T05:05:00Z,26.0630,-83.0730,1014.08,1111122 
COMPS,ioos:station:USF.COMPS:C13:1,2016-12-02T05:35:00Z,26.0630,-83.0730,1013.99,1111122 
COMPS,ioos:station:USF.COMPS:C13:1,2016-12-02T06:05:00Z,26.0630,-83.0730,1014.16,1111122 
COMPS,ioos:station:USF.COMPS:C13:1,2016-12-02T06:35:00Z,26.0630,-83.0730,1014.26,1111122 
COMPS,ioos:station:USF.COMPS:C13:1,2016-12-02T07:05:00Z,26.0630,-83.0730,1014.25,1111122 
COMPS,ioos:station:USF.COMPS:C13:1,2016-12-02T07:35:00Z,26.0630,-83.0730,1014.24,1111122 
COMPS,ioos:station:USF.COMPS:C13:1,2016-12-02T08:05:00Z,26.0630,-83.0730,1014.24,1111122 
COMPS,ioos:station:USF.COMPS:C13:1,2016-12-02T08:35:00Z,26.0630,-83.0730,1014.31,1111122 
COMPS,ioos:station:USF.COMPS:C13:1,2016-12-02T09:05:00Z,26.0630,-83.0730,1014.46,1111122 
COMPS,ioos:station:USF.COMPS:C13:1,2016-12-02T09:35:00Z,26.0630,-83.0730,1014.67,1111122 
COMPS,ioos:station:USF.COMPS:C13:1,2016-12-02T10:05:00Z,26.0630,-83.0730,1014.96,1111122 
COMPS,ioos:station:USF.COMPS:C13:1,2016-12-02T10:35:00Z,26.0630,-83.0730,1015.21,1111122 
COMPS,ioos:station:USF.COMPS:C13:1,2016-12-02T11:05:00Z,26.0630,-83.0730,1015.52,1111122 
COMPS,ioos:station:USF.COMPS:C13:1,2016-12-02T11:35:00Z,26.0630,-83.0730,1015.78,1111122 
COMPS,ioos:station:USF.COMPS:C13:1,2016-12-02T12:05:00Z,26.0630,-83.0730,1016.14,1111122 
COMPS,ioos:station:USF.COMPS:C13:1,2016-12-02T12:35:00Z,26.0630,-83.0730,1016.56,1111122 
COMPS,ioos:station:USF.COMPS:C13:1,2016-12-02T13:05:00Z,26.0630,-83.0730,1016.76,1111122 
COMPS,ioos:station:USF.COMPS:C13:1,2016-12-02T13:35:00Z,26.0630,-83.0730,1017.01,1111122 
COMPS,ioos:station:USF.COMPS:C13:1,2016-12-02T14:05:00Z,26.0630,-83.0730,1017.37,1111122 
COMPS,ioos:station:USF.COMPS:C13:1,2016-12-02T14:35:00Z,26.0630,-83.0730,1017.93,1111122 
COMPS,ioos:station:USF.COMPS:C13:1,2016-12-02T15:05:00Z,26.0630,-83.0730,1017.97,1111122 
COMPS,ioos:station:USF.COMPS:C13:1,2016-12-02T15:35:00Z,26.0630,-83.0730,1017.88,1111122 
COMPS,ioos:station:USF.COMPS:C13:1,2016-12-02T16:05:00Z,26.0630,-83.0730,1017.62,1111122 
COMPS,ioos:station:USF.COMPS:C13:1,2016-12-02T16:35:00Z,26.0630,-83.0730,1017.33,1111122 
COMPS,ioos:station:USF.COMPS:C13:1,2016-12-02T17:05:00Z,26.0630,-83.0730,1017.04,1111122 
COMPS,ioos:station:USF.COMPS:C13:1,2016-12-02T17:35:00Z,26.0630,-83.0730,1016.6,1111122 
COMPS,ioos:station:USF.COMPS:C13:1,2016-12-02T18:05:00Z,26.0630,-83.0730,1016.29,1111122 
COMPS,ioos:station:USF.COMPS:C13:1,2016-12-02T18:35:00Z,26.0630,-83.0730,1016.11,1111122 
COMPS,ioos:station:USF.COMPS:C13:1,2016-12-02T19:05:00Z,26.0630,-83.0730,1015.71,1111122 
COMPS,ioos:station:USF.COMPS:C13:1,2016-12-02T19:35:00Z,26.0630,-83.0730,1015.44,1111122 
COMPS,ioos:station:USF.COMPS:C13:1,2016-12-02T20:05:00Z,26.0630,-83.0730,1015.45,1111122 
COMPS,ioos:station:USF.COMPS:C13:1,2016-12-02T20:35:00Z,26.0630,-83.0730,1015.24,1111122 
COMPS,ioos:station:USF.COMPS:C13:1,2016-12-02T21:05:00Z,26.0630,-83.0730,1015.14,1111122 
COMPS,ioos:station:USF.COMPS:C13:1,2016-12-02T21:35:00Z,26.0630,-83.0730,1015.27,1111122 
COMPS,ioos:station:USF.COMPS:C13:1,2016-12-02T22:05:00Z,26.0630,-83.0730,1015.47,1111122 
COMPS,ioos:station:USF.COMPS:C13:1,2016-12-02T22:35:00Z,26.0630,-83.0730,1015.25,1111122 
COMPS,ioos:station:USF.COMPS:C13:1,2016-12-02T23:05:00Z,26.0630,-83.0730,1015.3,1111122 
COMPS,ioos:station:USF.COMPS:C13:1,2016-12-02T23:35:00Z,26.0630,-83.0730,1015.44,1111122 
COMPS,ioos:station:USF.COMPS:C13:1,2016-12-03T00:05:00Z,26.0630,-83.0730,1015.7,1111122 
COMPS,ioos:station:USF.COMPS:C13:1,2016-12-03T00:35:00Z,26.0630,-83.0730,1015.71,1111122 
COMPS,ioos:station:USF.COMPS:C13:1,2016-12-03T01:05:00Z,26.0630,-83.0730,1015.86,1111122 
COMPS,ioos:station:USF.COMPS:C13:1,2016-12-03T01:35:00Z,26.0630,-83.0730,1016.24,1111122 
COMPS,ioos:station:USF.COMPS:C13:1,2016-12-03T02:05:00Z,26.0630,-83.0730,1016.53,1111122 
COMPS,ioos:station:USF.COMPS:C13:1,2016-12-03T02:35:00Z,26.0630,-83.0730,1016.96,1111122 
COMPS,ioos:station:USF.COMPS:C13:1,2016-12-03T03:05:00Z,26.0630,-83.0730,1016.91,1111122 
COMPS,ioos:station:USF.COMPS:C13:1,2016-12-03T03:35:00Z,26.0630,-83.0730,1017.0,1111122 
COMPS,ioos:station:USF.COMPS:C13:1,2016-12-03T04:05:00Z,26.0630,-83.0730,1016.92,1111122 
COMPS,ioos:station:USF.COMPS:C13:1,2016-12-03T04:35:00Z,26.0630,-83.0730,1016.76,1111122 
COMPS,ioos:station:USF.COMPS:C13:1,2016-12-03T06:05:00Z,26.0630,-83.0730,1016.31,1111122 
COMPS,ioos:station:USF.COMPS:C13:1,2016-12-03T06:35:00Z,26.0630,-83.0730,1016.35,1111122 
COMPS,ioos:station:USF.COMPS:C13:1,2016-12-03T07:05:00Z,26.0630,-83.0730,1016.47,1111122 
COMPS,ioos:station:USF.COMPS:C13:1,2016-12-03T07:35:00Z,26.0630,-83.0730,1016.48,1111122 
COMPS,ioos:station:USF.COMPS:C13:1,2016-12-03T10:05:00Z,26.0630,-83.0730,1016.25,1111122 
COMPS,ioos:station:USF.COMPS:C13:1,2016-12-03T10:35:00Z,26.0630,-83.0730,1016.67,1111122 
COMPS,ioos:station:USF.COMPS:C13:1,2016-12-03T11:05:00Z,26.0630,-83.0730,1016.85,1111122 
COMPS,ioos:station:USF.COMPS:C13:1,2016-12-03T11:35:00Z,26.0630,-83.0730,1016.68,1111122 
COMPS,ioos:station:USF.COMPS:C13:1,2016-12-03T12:05:00Z,26.0630,-83.0730,1016.72,1111122 
COMPS,ioos:station:USF.COMPS:C13:1,2016-12-03T12:35:00Z,26.0630,-83.0730,1017.1,1111122 
COMPS,ioos:station:USF.COMPS:C13:1,2016-12-03T13:05:00Z,26.0630,-83.0730,1017.29,1111122 
COMPS,ioos:station:USF.COMPS:C13:1,2016-12-03T13:35:00Z,26.0630,-83.0730,1017.28,1111122 
COMPS,ioos:station:USF.COMPS:C13:1,2016-12-03T14:05:00Z,26.0630,-83.0730,1017.54,1111122 
COMPS,ioos:station:USF.COMPS:C13:1,2016-12-03T14:35:00Z,26.0630,-83.0730,1017.48,1111122 
COMPS,ioos:station:USF.COMPS:C13:1,2016-12-03T16:05:00Z,26.0630,-83.0730,1017.24,1111122 
COMPS,ioos:station:USF.COMPS:C13:1,2016-12-03T16:35:00Z,26.0630,-83.0730,1016.8,1111122 
COMPS,ioos:station:USF.COMPS:C13:1,2016-12-03T17:05:00Z,26.0630,-83.0730,1016.2,1111122 
COMPS,ioos:station:USF.COMPS:C13:1,2016-12-03T17:35:00Z,26.0630,-83.0730,1015.59,1111122 
COMPS,ioos:station:USF.COMPS:C13:1,2016-12-03T19:05:00Z,26.0630,-83.0730,1014.34,1111122 
COMPS,ioos:station:USF.COMPS:C13:1,2016-12-03T19:35:00Z,26.0630,-83.0730,1014.39,1111122 
COMPS,ioos:station:USF.COMPS:C13:1,2016-12-03T20:05:00Z,26.0630,-83.0730,1014.32,1111122 
COMPS,ioos:station:USF.COMPS:C13:1,2016-12-03T20:35:00Z,26.0630,-83.0730,1014.17,1111122 
COMPS,ioos:station:USF.COMPS:C13:1,2016-12-03T21:05:00Z,26.0630,-83.0730,1014.14,1111122 
COMPS,ioos:station:USF.COMPS:C13:1,2016-12-03T21:35:00Z,26.0630,-83.0730,1014.28,1111122 
COMPS,ioos:station:USF.COMPS:C13:1,2016-12-03T22:05:00Z,26.0630,-83.0730,1014.31,1111122 
COMPS,ioos:station:USF.COMPS:C13:1,2016-12-03T22:35:00Z,26.0630,-83.0730,1014.32,1111122 
COMPS,ioos:station:USF.COMPS:C13:1,2016-12-03T23:05:00Z,26.0630,-83.0730,1014.3,1111122 
COMPS,ioos:station:USF.COMPS:C13:1,2016-12-03T23:35:00Z,26.0630,-83.0730,1014.66,1111122 
COMPS,ioos:station:USF.COMPS:C13:1,2016-12-04T00:05:00Z,26.0630,-83.0730,1015.02,1111122 
COMPS,ioos:station:USF.COMPS:C13:1,2016-12-04T00:35:00Z,26.0630,-83.0730,1015.17,1111122 
COMPS,ioos:station:USF.COMPS:C13:1,2016-12-04T01:05:00Z,26.0630,-83.0730,1015.16,1111122 
COMPS,ioos:station:USF.COMPS:C13:1,2016-12-04T01:35:00Z,26.0630,-83.0730,1015.18,1111122 
COMPS,ioos:station:USF.COMPS:C13:1,2016-12-04T03:05:00Z,26.0630,-83.0730,1015.67,1111122 
COMPS,ioos:station:USF.COMPS:C13:1,2016-12-04T03:35:00Z,26.0630,-83.0730,1015.56,1111122 
COMPS,ioos:station:USF.COMPS:C13:1,2016-12-04T04:05:00Z,26.0630,-83.0730,1015.46,1111122 
COMPS,ioos:station:USF.COMPS:C13:1,2016-12-04T04:35:00Z,26.0630,-83.0730,1015.34,1111122 
COMPS,ioos:station:USF.COMPS:C13:1,2016-12-04T05:05:00Z,26.0630,-83.0730,1014.89,1111122 
COMPS,ioos:station:USF.COMPS:C13:1,2016-12-04T05:35:00Z,26.0630,-83.0730,1014.78,1111122 
COMPS,ioos:station:USF.COMPS:C13:1,2016-12-04T06:05:00Z,26.0630,-83.0730,1014.65,1111122 
COMPS,ioos:station:USF.COMPS:C13:1,2016-12-04T06:35:00Z,26.0630,-83.0730,1014.08,1111122 
COMPS,ioos:station:USF.COMPS:C13:1,2016-12-04T07:05:00Z,26.0630,-83.0730,1013.78,1111122 
COMPS,ioos:station:USF.COMPS:C13:1,2016-12-04T07:35:00Z,26.0630,-83.0730,1013.66,1111122 
COMPS,ioos:station:USF.COMPS:C13:1,2016-12-04T08:05:00Z,26.0630,-83.0730,1013.62,1111122 
COMPS,ioos:station:USF.COMPS:C13:1,2016-12-04T08:35:00Z,26.0630,-83.0730,1013.64,1111122 
COMPS,ioos:station:USF.COMPS:C13:1,2016-12-04T09:05:00Z,26.0630,-83.0730,1013.69,1111122 
COMPS,ioos:station:USF.COMPS:C13:1,2016-12-04T09:35:00Z,26.0630,-83.0730,1013.56,1111122 
COMPS,ioos:station:USF.COMPS:C13:1,2016-12-04T10:05:00Z,26.0630,-83.0730,1013.47,1111122 
COMPS,ioos:station:USF.COMPS:C13:1,2016-12-04T10:35:00Z,26.0630,-83.0730,1013.64,1111122 
COMPS,ioos:station:USF.COMPS:C13:1,2016-12-04T11:05:00Z,26.0630,-83.0730,1014.13,1111122 
COMPS,ioos:station:USF.COMPS:C13:1,2016-12-04T11:35:00Z,26.0630,-83.0730,1014.39,1111122 
COMPS,ioos:station:USF.COMPS:C13:1,2016-12-04T12:05:00Z,26.0630,-83.0730,1014.62,1111122 
COMPS,ioos:station:USF.COMPS:C13:1,2016-12-04T12:35:00Z,26.0630,-83.0730,1014.82,1111122 
COMPS,ioos:station:USF.COMPS:C13:1,2016-12-04T13:05:00Z,26.0630,-83.0730,1014.81,1111122 
COMPS,ioos:station:USF.COMPS:C13:1,2016-12-04T13:35:00Z,26.0630,-83.0730,1014.9,1111122 
COMPS,ioos:station:USF.COMPS:C13:1,2016-12-04T14:05:00Z,26.0630,-83.0730,1014.94,1111122 
COMPS,ioos:station:USF.COMPS:C13:1,2016-12-04T14:35:00Z,26.0630,-83.0730,1015.2,1111122 
COMPS,ioos:station:USF.COMPS:C13:1,2016-12-04T15:05:00Z,26.0630,-83.0730,1015.19,1111122 
COMPS,ioos:station:USF.COMPS:C13:1,2016-12-04T15:35:00Z,26.0630,-83.0730,1015.31,1111122 
COMPS,ioos:station:USF.COMPS:C13:1,2016-12-04T16:05:00Z,26.0630,-83.0730,1015.19,1111122 
COMPS,ioos:station:USF.COMPS:C13:1,2016-12-04T16:35:00Z,26.0630,-83.0730,1014.99,1111122 
COMPS,ioos:station:USF.COMPS:C13:1,2016-12-04T17:05:00Z,26.0630,-83.0730,1014.48,1111122 
COMPS,ioos:station:USF.COMPS:C13:1,2016-12-04T17:35:00Z,26.0630,-83.0730,1014.05,1111122 
COMPS,ioos:station:USF.COMPS:C13:1,2016-12-04T18:05:00Z,26.0630,-83.0730,1013.79,1111122 
COMPS,ioos:station:USF.COMPS:C13:1,2016-12-04T18:35:00Z,26.0630,-83.0730,1013.3,1111122 
COMPS,ioos:station:USF.COMPS:C13:1,2016-12-04T19:05:00Z,26.0630,-83.0730,1013.1,1111122 
COMPS,ioos:station:USF.COMPS:C13:1,2016-12-04T19:35:00Z,26.0630,-83.0730,1013.07,1111122 
COMPS,ioos:station:USF.COMPS:C13:1,2016-12-04T20:05:00Z,26.0630,-83.0730,1012.94,1111122 
COMPS,ioos:station:USF.COMPS:C13:1,2016-12-04T20:35:00Z,26.0630,-83.0730,1012.86,1111122 
COMPS,ioos:station:USF.COMPS:C13:1,2016-12-04T21:05:00Z,26.0630,-83.0730,1012.99,1111122 
COMPS,ioos:station:USF.COMPS:C13:1,2016-12-04T21:35:00Z,26.0630,-83.0730,1012.86,1111122 
COMPS,ioos:station:USF.COMPS:C13:1,2016-12-04T22:05:00Z,26.0630,-83.0730,1012.87,1111122 
COMPS,ioos:station:USF.COMPS:C13:1,2016-12-04T22:35:00Z,26.0630,-83.0730,1012.82,1111122 
COMPS,ioos:station:USF.COMPS:C13:1,2016-12-04T23:05:00Z,26.0630,-83.0730,1013.0,1111122 
COMPS,ioos:station:USF.COMPS:C13:1,2016-12-04T23:35:00Z,26.0630,-83.0730,1013.14,1111122 
COMPS,ioos:station:USF.COMPS:C13:1,2016-12-05T00:05:00Z,26.0630,-83.0730,1013.32,1111122 
COMPS,ioos:station:USF.COMPS:C13:1,2016-12-05T00:35:00Z,26.0630,-83.0730,1013.75,1111122 
COMPS,ioos:station:USF.COMPS:C13:1,2016-12-05T01:05:00Z,26.0630,-83.0730,1014.32,1111122 
COMPS,ioos:station:USF.COMPS:C13:1,2016-12-05T01:35:00Z,26.0630,-83.0730,1014.3,1111122 
COMPS,ioos:station:USF.COMPS:C13:1,2016-12-05T02:05:00Z,26.0630,-83.0730,1014.2,1111122 
COMPS,ioos:station:USF.COMPS:C13:1,2016-12-05T02:35:00Z,26.0630,-83.0730,1014.32,1111122 
COMPS,ioos:station:USF.COMPS:C13:1,2016-12-05T03:05:00Z,26.0630,-83.0730,1014.2,1111122 
COMPS,ioos:station:USF.COMPS:C13:1,2016-12-05T03:35:00Z,26.0630,-83.0730,1013.92,1111122 
COMPS,ioos:station:USF.COMPS:C13:1,2016-12-05T04:05:00Z,26.0630,-83.0730,1014.0,1111122 
COMPS,ioos:station:USF.COMPS:C13:1,2016-12-05T04:35:00Z,26.0630,-83.0730,1014.04,1111122 
COMPS,ioos:station:USF.COMPS:C13:1,2016-12-05T05:05:00Z,26.0630,-83.0730,1013.79,1111122 
COMPS,ioos:station:USF.COMPS:C13:1,2016-12-05T05:35:00Z,26.0630,-83.0730,1013.63,1111122 
COMPS,ioos:station:USF.COMPS:C13:1,2016-12-05T06:05:00Z,26.0630,-83.0730,1013.44,1111122 
COMPS,ioos:station:USF.COMPS:C13:1,2016-12-05T06:35:00Z,26.0630,-83.0730,1013.21,1111122 
COMPS,ioos:station:USF.COMPS:C13:1,2016-12-05T07:05:00Z,26.0630,-83.0730,1012.92,1111122 
COMPS,ioos:station:USF.COMPS:C13:1,2016-12-05T07:35:00Z,26.0630,-83.0730,1012.78,1111122 
COMPS,ioos:station:USF.COMPS:C13:1,2016-12-05T08:05:00Z,26.0630,-83.0730,1012.44,1111122 
COMPS,ioos:station:USF.COMPS:C13:1,2016-12-05T08:35:00Z,26.0630,-83.0730,1012.45,1111122 
COMPS,ioos:station:USF.COMPS:C13:1,2016-12-05T09:05:00Z,26.0630,-83.0730,1012.47,1111122 
COMPS,ioos:station:USF.COMPS:C13:1,2016-12-05T09:35:00Z,26.0630,-83.0730,1012.16,1111122 
COMPS,ioos:station:USF.COMPS:C13:1,2016-12-05T10:05:00Z,26.0630,-83.0730,1012.34,1111122 
COMPS,ioos:station:USF.COMPS:C13:1,2016-12-05T10:35:00Z,26.0630,-83.0730,1012.13,1111122 
COMPS,ioos:station:USF.COMPS:C13:1,2016-12-05T11:05:00Z,26.0630,-83.0730,1012.35,1111122 
COMPS,ioos:station:USF.COMPS:C13:1,2016-12-05T11:35:00Z,26.0630,-83.0730,1012.42,1111122 
COMPS,ioos:station:USF.COMPS:C13:1,2016-12-05T12:05:00Z,26.0630,-83.0730,1012.45,1111122 
COMPS,ioos:station:USF.COMPS:C13:1,2016-12-05T12:35:00Z,26.0630,-83.0730,1012.44,1111122 
COMPS,ioos:station:USF.COMPS:C13:1,2016-12-05T13:05:00Z,26.0630,-83.0730,1012.64,1111122 
COMPS,ioos:station:USF.COMPS:C13:1,2016-12-05T13:35:00Z,26.0630,-83.0730,1012.66,1111122 
COMPS,ioos:station:USF.COMPS:C13:1,2016-12-05T14:05:00Z,26.0630,-83.0730,1012.76,1111122 
COMPS,ioos:station:USF.COMPS:C13:1,2016-12-05T14:35:00Z,26.0630,-83.0730,1013.29,1111122 
COMPS,ioos:station:USF.COMPS:C13:1,2016-12-05T15:05:00Z,26.0630,-83.0730,1013.4,1111122 
COMPS,ioos:station:USF.COMPS:C13:1,2016-12-05T15:35:00Z,26.0630,-83.0730,1013.59,1111122 
COMPS,ioos:station:USF.COMPS:C13:1,2016-12-05T16:05:00Z,26.0630,-83.0730,1013.28,1111122 
COMPS,ioos:station:USF.COMPS:C13:1,2016-12-05T16:35:00Z,26.0630,-83.0730,1012.92,1111122 
COMPS,ioos:station:USF.COMPS:C13:1,2016-12-05T17:05:00Z,26.0630,-83.0730,1012.5,1111122 
COMPS,ioos:station:USF.COMPS:C13:1,2016-12-05T17:35:00Z,26.0630,-83.0730,1011.87,1111122 
COMPS,ioos:station:USF.COMPS:C13:1,2016-12-05T18:05:00Z,26.0630,-83.0730,1011.51,1111122 
COMPS,ioos:station:USF.COMPS:C13:1,2016-12-05T18:35:00Z,26.0630,-83.0730,1011.01,1111122 
COMPS,ioos:station:USF.COMPS:C13:1,2016-12-05T19:05:00Z,26.0630,-83.0730,1010.67,1111122 
COMPS,ioos:station:USF.COMPS:C13:1,2016-12-05T19:35:00Z,26.0630,-83.0730,1010.29,1111122 
COMPS,ioos:station:USF.COMPS:C13:1,2016-12-05T20:05:00Z,26.0630,-83.0730,1010.17,1111122 
COMPS,ioos:station:USF.COMPS:C13:1,2016-12-05T20:35:00Z,26.0630,-83.0730,1009.93,1111122 
COMPS,ioos:station:USF.COMPS:C13:1,2016-12-05T21:05:00Z,26.0630,-83.0730,1009.94,1111122 
COMPS,ioos:station:USF.COMPS:C13:1,2016-12-05T21:35:00Z,26.0630,-83.0730,1010.19,1111122 
COMPS,ioos:station:USF.COMPS:C13:1,2016-12-05T22:05:00Z,26.0630,-83.0730,1010.24,1111122 
COMPS,ioos:station:USF.COMPS:C13:1,2016-12-05T22:35:00Z,26.0630,-83.0730,1010.17,1111122 
COMPS,ioos:station:USF.COMPS:C13:1,2016-12-05T23:05:00Z,26.0630,-83.0730,1010.17,1111122 
COMPS,ioos:station:USF.COMPS:C13:1,2016-12-05T23:35:00Z,26.0630,-83.0730,1010.16,1111122 
COMPS,ioos:station:USF.COMPS:C13:1,2016-12-06T00:05:00Z,26.0630,-83.0730,1010.27,1111122 
COMPS,ioos:station:USF.COMPS:C13:1,2016-12-06T00:35:00Z,26.0630,-83.0730,1010.57,1111122 
COMPS,ioos:station:USF.COMPS:C13:1,2016-12-06T01:05:00Z,26.0630,-83.0730,1010.67,1111122 
COMPS,ioos:station:USF.COMPS:C13:1,2016-12-06T01:35:00Z,26.0630,-83.0730,1010.71,1111122 
COMPS,ioos:station:USF.COMPS:C13:1,2016-12-06T02:05:00Z,26.0630,-83.0730,1010.46,1111122 
COMPS,ioos:station:USF.COMPS:C13:1,2016-12-06T02:35:00Z,26.0630,-83.0730,1010.48,1111122 
COMPS,ioos:station:USF.COMPS:C13:1,2016-12-06T03:05:00Z,26.0630,-83.0730,1010.66,1111122 
COMPS,ioos:station:USF.COMPS:C13:1,2016-12-06T03:35:00Z,26.0630,-83.0730,1010.93,1111122 
COMPS,ioos:station:USF.COMPS:C13:1,2016-12-06T04:05:00Z,26.0630,-83.0730,1011.03,1111122 
COMPS,ioos:station:USF.COMPS:C13:1,2016-12-06T04:35:00Z,26.0630,-83.0730,1010.77,1111122 
COMPS,ioos:station:USF.COMPS:C13:1,2016-12-06T05:05:00Z,26.0630,-83.0730,1010.66,1111122 
COMPS,ioos:station:USF.COMPS:C13:1,2016-12-06T05:35:00Z,26.0630,-83.0730,1010.57,1111122 
COMPS,ioos:station:USF.COMPS:C13:1,2016-12-06T06:05:00Z,26.0630,-83.0730,1010.33,1111122 
COMPS,ioos:station:USF.COMPS:C13:1,2016-12-06T06:35:00Z,26.0630,-83.0730,1010.35,1111122 
COMPS,ioos:station:USF.COMPS:C13:1,2016-12-06T07:05:00Z,26.0630,-83.0730,1010.42,1111122 
COMPS,ioos:station:USF.COMPS:C13:1,2016-12-06T07:35:00Z,26.0630,-83.0730,1010.18,1111122 
COMPS,ioos:station:USF.COMPS:C13:1,2016-12-06T08:05:00Z,26.0630,-83.0730,1010.12,1111122 
COMPS,ioos:station:USF.COMPS:C13:1,2016-12-06T08:35:00Z,26.0630,-83.0730,1009.91,1111122 
COMPS,ioos:station:USF.COMPS:C13:1,2016-12-06T09:05:00Z,26.0630,-83.0730,1009.91,1111122 
COMPS,ioos:station:USF.COMPS:C13:1,2016-12-06T09:35:00Z,26.0630,-83.0730,1009.94,1111122 
COMPS,ioos:station:USF.COMPS:C13:1,2016-12-06T10:05:00Z,26.0630,-83.0730,1010.17,1111122 
COMPS,ioos:station:USF.COMPS:C13:1,2016-12-06T10:35:00Z,26.0630,-83.0730,1010.4,1111122 
COMPS,ioos:station:USF.COMPS:C13:1,2016-12-06T11:05:00Z,26.0630,-83.0730,1010.74,1111122 
COMPS,ioos:station:USF.COMPS:C13:1,2016-12-06T11:35:00Z,26.0630,-83.0730,1011.06,1111122 
COMPS,ioos:station:USF.COMPS:C13:1,2016-12-06T12:05:00Z,26.0630,-83.0730,1011.34,1111122 
COMPS,ioos:station:USF.COMPS:C13:1,2016-12-06T12:35:00Z,26.0630,-83.0730,1011.45,1111122 
COMPS,ioos:station:USF.COMPS:C13:1,2016-12-06T13:05:00Z,26.0630,-83.0730,1011.54,1111122 
COMPS,ioos:station:USF.COMPS:C13:1,2016-12-06T13:35:00Z,26.0630,-83.0730,1011.8,1111122 
COMPS,ioos:station:USF.COMPS:C13:1,2016-12-06T14:05:00Z,26.0630,-83.0730,1011.95,1111122 
COMPS,ioos:station:USF.COMPS:C13:1,2016-12-06T14:35:00Z,26.0630,-83.0730,1012.22,1111122 
COMPS,ioos:station:USF.COMPS:C13:1,2016-12-06T15:05:00Z,26.0630,-83.0730,1012.47,1111122 
COMPS,ioos:station:USF.COMPS:C13:1,2016-12-06T15:35:00Z,26.0630,-83.0730,1012.5,1111122 
COMPS,ioos:station:USF.COMPS:C13:1,2016-12-06T16:05:00Z,26.0630,-83.0730,1012.27,1111122 
COMPS,ioos:station:USF.COMPS:C13:1,2016-12-06T16:35:00Z,26.0630,-83.0730,1011.94,1111122 
COMPS,ioos:station:USF.COMPS:C13:1,2016-12-06T17:05:00Z,26.0630,-83.0730,1011.66,1111122 
COMPS,ioos:station:USF.COMPS:C13:1,2016-12-06T17:35:00Z,26.0630,-83.0730,1011.55,1111122 
COMPS,ioos:station:USF.COMPS:C13:1,2016-12-06T18:05:00Z,26.0630,-83.0730,1011.09,1111122 
COMPS,ioos:station:USF.COMPS:C13:1,2016-12-06T18:35:00Z,26.0630,-83.0730,1010.74,1111122 